User: anonymous   Login
Location: Reading
(52.0000°N, 0.0000°E)
Time: 12:17:21
(UTC+00:00)
Language:

Iridium 41 - Orbit

View from above orbital plane
View from above orbital plane
View from above satellite
View from above satellite

Ground track
Ground track

The orbit data is extracted from the following two-line orbital elements,

1 25040U 97069B   15086.87839410  .00000618  00000-0  21370-3 0  9993
2 25040 086.4010 001.4700 0002368 084.8970 343.1956 14.34220245909881
Epoch (UTC): 27 March 2015 21:04:53
Eccentricity: 0.0002368
inclination: 86.4010°
perigee height: 776 km
apogee height: 779 km
right ascension of ascending node: 1.4700°
argument of perigee: 84.8970°
revolutions per day: 14.34220245
mean anomaly at epoch: 343.1956°
orbit number at epoch: 90988

The dashed part of the orbit path shows where the satellite is in the earth's shadow,  

DLR